Location: Bennemühlen
(52.5740°N, 9.7135°E)
Time: 05:25:09
(UTC+00:00)

A-11 Canister half - Pass Details

Date: 24 February 2026
Orbit: 1512 x 1687 km, 47.2° (Epoch: 5 March)

Event Time Altitude Azimuth Distance (km) Brightness Sun altitude
Rises 16:09:36 0° 172° (S) 4,919 11.8 5.1°
Reaches altitude 10° 16:15:16 10° 147° (SSE) 3,946 11.1 4.3°
Maximum altitude 16:19:12 13° 124° (ESE) 3,713 10.7 3.7°
Drops below altitude 10° 16:23:08 10° 100° (E) 3,947 10.6 3.2°
Sets 16:28:44 0° 76° (ENE) 4,922 10.9 2.4°
